Weather History for Wadena, MN

Change the Weather History Date:

Thursday, January 23, 2014

  Actual Average Record
Temperature  
Mean Temperature -10 °F -  
Max Temperature 8 °F 20 °F 58 °F (1942)
Min Temperature -25 °F -1 °F -42 °F (1935)
Degree Days  
Heating Degree Days 74    
Moisture  
Dew Point -19 °F    
Average Humidity 75    
Maximum Humidity 84    
Minimum Humidity 62    
Precipitation  
Precipitation 0.00 in - - ()
Sea Level Pressure  
Sea Level Pressure 30.45 in    
Wind  
Wind Speed 8 mph (WSW)    
Max Wind Speed 17 mph    
Max Gust Speed 23 mph    
Visibility 10 miles    
Events      
Averages and records for this station are not official NWS values.
T = Trace of Precipitation, MM = Missing Value Source: NWS Daily Summary

Daily Weather History Graph

Daily Weather History Graph

Search for Another Location

Airport:

Trip Planner

Search our weather history database for the weather conditions in past years. The results will help you decide how hot, cold, wet, or windy it might be!

Date:

Astronomy

Jan. 23, 2014 Rise Set
Actual Time 7:54 AM CST 5:11 PM CST
Civil Twilight 7:20 AM CST 5:44 PM CST
Nautical Twilight 6:44 AM CST 6:21 PM CST
Astronomical Twilight 6:08 AM CST 6:57 PM CST
Moon 12:10 AM CST 11:02 AM CST
Length of Visible Light 10h 23m
Length of Day
9h 17m
Waning Gibbous, 55% of the Moon is Illuminated
Jan 23
Waning Gibbous
Jan 23
Last Quarter
Jan 30
New
Feb 6
First Quarter
Feb 14
Full

Hourly Weather History & Observations

Time (CST) Temp. Windchill Dew Point Humidity Pressure Visibility Wind Dir Wind Speed Gust Speed Precip Events Conditions
12:15 AM -22.0 °F -43.6 °F -27.4 °F 76% 30.53 in 10.0 mi NW 10.4 mph - N/A   Clear
12:35 AM -22.0 °F -42.3 °F -27.4 °F 76% 30.52 in 10.0 mi WNW 9.2 mph - N/A   Clear
12:53 AM -22.0 °F -39.4 °F -27.4 °F 76% 30.53 in 10.0 mi WNW 6.9 mph - N/A   Clear
1:15 AM -23.8 °F -43.2 °F -27.4 °F 83% 30.54 in 10.0 mi WNW 8.1 mph - N/A   Clear
1:35 AM -23.8 °F -44.5 °F -27.4 °F 83% 30.54 in 10.0 mi WNW 9.2 mph - N/A   Clear
1:53 AM -23.8 °F -43.2 °F -27.4 °F 83% 30.54 in 10.0 mi WNW 8.1 mph - N/A   Clear
2:15 AM -23.8 °F -43.2 °F -27.4 °F 83% 30.56 in 10.0 mi WNW 8.1 mph - N/A   Clear
2:35 AM -23.8 °F -44.5 °F -27.4 °F 83% 30.56 in 10.0 mi WNW 9.2 mph - N/A   Clear
2:52 AM -23.8 °F -43.2 °F -29.2 °F 76% 30.57 in 10.0 mi NW 8.1 mph - N/A   Clear
3:15 AM -23.8 °F -43.2 °F -27.4 °F 83% 30.57 in 10.0 mi WNW 8.1 mph - N/A   Clear
3:35 AM -23.8 °F -41.6 °F -29.2 °F 76% 30.58 in 10.0 mi WNW 6.9 mph - N/A   Clear
3:53 AM -23.8 °F -39.8 °F -27.4 °F 83% 30.59 in 10.0 mi WNW 5.8 mph - N/A   Clear
4:15 AM -23.8 °F -39.8 °F -27.4 °F 83% 30.59 in 10.0 mi WNW 5.8 mph - N/A   Clear
4:34 AM -23.8 °F -41.6 °F -27.4 °F 83% 30.60 in 10.0 mi WNW 6.9 mph - N/A   Clear
4:53 AM -23.8 °F -41.6 °F -27.4 °F 83% 30.60 in 10.0 mi WNW 6.9 mph - N/A   Clear
5:15 AM -25.6 °F -43.8 °F -31.0 °F 76% 30.61 in 10.0 mi NW 6.9 mph - N/A   Clear
5:35 AM -25.6 °F -41.9 °F -29.2 °F 83% 30.61 in 10.0 mi WNW 5.8 mph - N/A   Clear
5:53 AM -25.6 °F -41.9 °F -31.0 °F 76% 30.61 in 10.0 mi WNW 5.8 mph - N/A   Clear
6:15 AM -23.8 °F -39.8 °F -29.2 °F 76% 30.61 in 10.0 mi West 5.8 mph - N/A   Clear
6:34 AM -25.6 °F -41.9 °F -29.2 °F 83% 30.61 in 10.0 mi WNW 5.8 mph - N/A   Clear
6:53 AM -25.6 °F -43.8 °F -29.2 °F 83% 30.62 in 10.0 mi WNW 6.9 mph - N/A   Clear
7:15 AM -25.6 °F -41.9 °F -31.0 °F 76% 30.62 in 10.0 mi WNW 5.8 mph - N/A   Clear
7:35 AM -25.6 °F -37.1 °F -31.0 °F 76% 30.62 in 10.0 mi WNW 3.5 mph - N/A   Clear
7:53 AM -25.6 °F -37.1 °F -32.8 °F 69% 30.62 in 7.0 mi West 3.5 mph - N/A   Clear
8:15 AM -25.6 °F -37.1 °F -32.8 °F 69% 30.62 in 10.0 mi West 3.5 mph - N/A   Clear
8:35 AM -25.6 °F -37.1 °F -31.0 °F 76% 30.63 in 10.0 mi West 3.5 mph - N/A   Clear
8:52 AM -23.8 °F -39.8 °F -29.2 °F 76% 30.63 in 10.0 mi West 5.8 mph - N/A   Clear
9:14 AM -22.0 °F -37.7 °F -27.4 °F 76% 30.63 in 10.0 mi WNW 5.8 mph - N/A   Clear
9:35 AM -20.2 °F -33.5 °F -25.6 °F 76% 30.63 in 10.0 mi West 4.6 mph - N/A   Clear
9:53 AM -20.2 °F -35.5 °F -25.6 °F 76% 30.64 in 10.0 mi West 5.8 mph - N/A   Clear
10:15 AM -18.4 °F -35.1 °F -23.8 °F 76% 30.63 in 10.0 mi West 6.9 mph - N/A   Clear
10:34 AM -16.6 °F -29.3 °F -22.0 °F 76% 30.63 in 10.0 mi West 4.6 mph - N/A   Clear
10:53 AM -16.6 °F -31.3 °F -20.2 °F 84% 30.62 in 10.0 mi WSW 5.8 mph - N/A   Clear
11:15 AM -14.8 °F -29.1 °F -18.4 °F 84% 30.62 in 10.0 mi West 5.8 mph - N/A   Clear
11:35 AM -13.0 °F -30.0 °F -18.4 °F 77% 30.61 in 10.0 mi West 8.1 mph - N/A   Clear
11:53 AM -11.2 °F -27.8 °F -16.6 °F 77% 30.60 in 10.0 mi West 8.1 mph - N/A   Clear
12:15 PM -11.2 °F -27.8 °F -16.6 °F 77% 30.59 in 10.0 mi West 8.1 mph - N/A   Clear
12:35 PM -9.4 °F -24.3 °F -16.6 °F 71% 30.58 in 10.0 mi West 6.9 mph - N/A   Clear
12:53 PM -9.4 °F -25.6 °F -16.6 °F 71% 30.57 in 10.0 mi West 8.1 mph - N/A   Clear
1:15 PM -7.6 °F -23.4 °F -14.8 °F 71% 30.55 in 10.0 mi WSW 8.1 mph - N/A   Clear
1:35 PM -7.6 °F -24.6 °F -14.8 °F 71% 30.55 in 10.0 mi SW 9.2 mph - N/A   Clear
1:53 PM -7.6 °F -23.4 °F -14.8 °F 71% 30.55 in 10.0 mi SW 8.1 mph - N/A   Clear
2:15 PM -7.6 °F -23.4 °F -14.8 °F 71% 30.52 in 10.0 mi SW 8.1 mph - N/A   Clear
2:35 PM -5.8 °F -21.2 °F -14.8 °F 65% 30.51 in 10.0 mi SW 8.1 mph - N/A   Clear
2:53 PM -5.8 °F -22.4 °F -14.8 °F 65% 30.50 in 10.0 mi SW 9.2 mph - N/A   Clear
3:15 PM -5.8 °F -22.4 °F -14.8 °F 65% 30.49 in 10.0 mi SW 9.2 mph - N/A   Clear
3:35 PM -5.8 °F -24.4 °F -14.8 °F 65% 30.47 in 10.0 mi SW 11.5 mph - N/A   Clear
3:52 PM -5.8 °F -21.2 °F -14.8 °F 65% 30.46 in 10.0 mi WSW 8.1 mph - N/A   Clear
4:15 PM -5.8 °F -22.4 °F -14.8 °F 65% 30.45 in 10.0 mi WSW 9.2 mph - N/A   Clear
4:35 PM -7.6 °F -22.1 °F -14.8 °F 71% 30.44 in 10.0 mi WSW 6.9 mph - N/A   Clear
4:53 PM -7.6 °F -18.8 °F -14.8 °F 71% 30.42 in 10.0 mi SW 4.6 mph - N/A   Clear
5:15 PM -9.4 °F -24.3 °F -16.6 °F 71% 30.39 in 10.0 mi SSW 6.9 mph - N/A   Clear
5:34 PM -11.2 °F -29.0 °F -18.4 °F 70% 30.38 in 10.0 mi South 9.2 mph - N/A   Clear
5:53 PM -11.2 °F -29.0 °F -16.6 °F 77% 30.35 in 10.0 mi SSW 9.2 mph - N/A   Clear
6:15 PM -11.2 °F -29.0 °F -16.6 °F 77% 30.33 in 10.0 mi South 9.2 mph - N/A   Clear
6:35 PM -11.2 °F -30.1 °F -16.6 °F 77% 30.29 in 10.0 mi South 10.4 mph - N/A   Clear
6:53 PM -9.4 °F -27.9 °F -14.8 °F 77% 30.27 in 10.0 mi South 10.4 mph - N/A   Clear
7:15 PM -7.6 °F -26.6 °F -13.0 °F 77% 30.24 in 10.0 mi South 11.5 mph - N/A   Clear
7:35 PM -7.6 °F -28.3 °F -11.2 °F 84% 30.22 in 10.0 mi South 13.8 mph - N/A   Clear
7:53 PM -5.8 °F -26.8 °F -11.2 °F 77% 30.21 in 10.0 mi SSW 15.0 mph - N/A   Clear
8:15 PM -5.8 °F -26.8 °F -9.4 °F 84% 30.18 in 10.0 mi SSW 15.0 mph 20.7 mph N/A   Clear
8:34 PM -4.0 °F -23.0 °F -9.4 °F 78% 30.16 in 10.0 mi SSW 12.7 mph - N/A   Scattered Clouds
8:53 PM -2.2 °F -22.2 °F -7.6 °F 78% 30.13 in 10.0 mi SSW 15.0 mph - N/A   Scattered Clouds
9:15 PM -0.4 °F -18.4 °F -7.6 °F 72% 30.10 in 10.0 mi SSW 12.7 mph - N/A   Scattered Clouds
9:35 PM 1.4 °F -16.1 °F -5.8 °F 72% 30.07 in 10.0 mi SSW 12.7 mph 19.6 mph N/A   Mostly Cloudy
9:53 PM 3.2 °F -13.1 °F -4.0 °F 72% 30.06 in 10.0 mi SSW 11.5 mph 20.7 mph N/A   Mostly Cloudy
10:15 PM 5.0 °F -11.6 °F -4.0 °F 66% 30.03 in 10.0 mi SSW 12.7 mph 20.7 mph N/A   Scattered Clouds
10:34 PM 6.8 °F -11.3 °F -2.2 °F 67% 30.00 in 10.0 mi SSW 16.1 mph 21.9 mph N/A   Clear
10:53 PM 6.8 °F -11.8 °F -2.2 °F 67% 29.97 in 10.0 mi SSW 17.3 mph 21.9 mph N/A   Mostly Cloudy
11:15 PM 6.8 °F -10.7 °F -2.2 °F 67% 29.94 in 10.0 mi SSW 15.0 mph 21.9 mph N/A   Overcast
11:35 PM 6.8 °F -9.3 °F -2.2 °F 67% 29.91 in 10.0 mi SSW 12.7 mph 23.0 mph N/A   Overcast
11:53 PM 8.6 °F -8.3 °F -2.2 °F 62% 29.89 in 10.0 mi SSW 15.0 mph 23.0 mph N/A   Overcast